GEFSMW_500_meanwind_210.txt.gz
Wind_Speed
20 20 21 23 24 25 25 25 27 27 27 28 29 29 29 29 30 30 30 30 29 29 29 29 29 28 28 27 27 27 26 26 25 25 25 25 25 25 26 26 26 26 26
20 20 21 24 25 26 26 27 27 28 28 29 30 30 30 31 31 30 30 30 29 28 28 28 27 27 26 25 24 25 25 25 25 25 25 25 25 25 25 26 26 26 26
21 21 22 24 25 26 28 28 28 28 29 29 29 30 32 32 31 30 29 28 28 27 26 26 25 25 24 25 24 24 25 24 25 25 24 23 24 25 25 25 25 26 26
22 23 24 25 26 28 28 28 29 29 29 29 30 31 31 31 30 28 28 27 26 25 25 25 24 24 24 24 24 24 23 24 24 24 24 24 24 24 24 25 26 26 26
24 24 25 26 27 28 28 29 30 30 30 30 30 30 29 29 29 27 26 25 23 23 23 24 23 23 24 24 24 24 23 24 24 24 24 24 24 25 25 24 25 26 26
26 25 25 26 27 28 28 29 30 30 29 29 29 29 27 27 26 26 25 23 22 22 22 23 23 23 24 23 23 23 23 23 23 24 24 24 24 24 24 25 26 27 27
27 27 27 27 28 28 29 30 30 29 29 28 28 28 27 26 25 24 23 22 21 22 22 22 22 23 23 23 23 23 23 23 23 23 23 24 25 24 24 25 26 26 27
27 27 28 27 27 28 28 29 29 28 28 27 27 27 26 25 24 23 22 21 21 21 22 21 21 21 22 23 23 23 23 22 22 22 22 23 24 24 24 24 25 25 25
27 27 27 27 27 28 28 28 28 28 27 26 26 26 25 24 23 22 21 20 20 21 21 21 21 21 21 22 22 22 22 22 22 22 22 23 23 24 24 24 25 26 26
27 26 26 26 27 27 28 28 27 26 26 25 24 24 24 23 22 21 21 21 21 20 21 20 20 21 21 21 20 21 21 21 22 21 20 21 22 23 23 24 25 25 26
25 25 25 26 26 26 26 26 25 25 25 24 23 23 23 22 21 21 21 21 20 20 20 19 19 19 20 20 20 20 20 20 20 20 20 21 21 22 23 23 24 24 24
25 25 26 25 25 25 25 25 24 24 23 22 22 22 22 22 21 21 21 20 20 19 19 19 19 18 18 19 19 19 19 19 18 18 19 20 20 21 22 22 23 23 23
25 25 25 24 24 24 24 24 23 22 22 21 20 21 22 21 21 21 20 19 19 19 19 19 18 18 17 17 17 18 18 17 17 17 18 19 19 20 20 20 21 22 23
25 25 25 24 24 23 23 22 21 20 20 20 20 21 21 21 20 20 19 18 18 19 18 17 16 16 16 15 15 15 16 16 17 17 18 18 17 18 19 20 21 21 22
24 24 24 23 23 22 22 21 20 20 20 19 20 21 21 20 20 19 18 18 18 17 17 17 16 16 14 13 14 15 15 15 15 15 16 16 16 17 18 19 19 20 20
23 23 22 22 21 21 21 20 20 20 20 19 19 19 20 20 19 18 18 17 16 16 17 16 15 15 14 14 14 15 15 14 14 14 14 15 15 16 17 18 19 19 19
22 22 22 21 20 19 20 20 20 20 19 19 18 18 18 18 17 17 15 16 16 16 16 15 15 15 14 14 14 15 14 14 14 14 14 15 16 17 17 17 18 18 18
21 21 20 20 20 20 20 19 19 19 18 18 17 17 17 17 16 15 15 15 16 16 16 15 14 14 14 15 15 15 15 14 14 14 15 16 16 16 16 16 17 17 18
20 20 20 20 20 19 19 19 18 18 17 16 16 16 16 16 15 14 13 15 16 16 15 15 16 15 15 16 16 15 15 15 15 15 15 16 16 16 17 17 17 17 18
20 20 20 20 20 19 18 18 17 16 16 15 15 16 16 16 16 15 15 15 15 15 15 15 16 16 15 15 15 16 16 16 16 16 15 15 15 16 17 17 18 18 18
20 19 19 19 19 18 18 17 16 16 15 15 15 16 15 15 15 15 15 15 15 14 14 14 15 16 16 15 15 16 17 16 16 16 15 15 16 16 17 17 18 18 18
19 19 19 18 18 18 17 16 15 15 15 15 16 16 15 14 14 14 14 14 14 15 15 15 15 16 16 16 15 16 16 16 16 15 16 16 16 16 17 18 19 19 18
18 18 18 18 18 17 16 15 15 14 14 14 14 14 14 13 13 13 13 13 14 15 15 15 16 17 16 16 15 16 16 16 16 16 16 16 16 17 17 18 19 19 19
18 18 18 18 17 17 16 15 14 14 13 13 12 12 12 13 13 13 12 13 14 15 15 16 17 17 17 16 16 16 16 16 17 17 17 17 18 17 19 20 21 20 21
19 18 17 17 16 15 14 14 14 13 13 12 12 11 12 12 12 12 12 13 14 14 15 16 16 17 17 16 16 17 16 17 18 18 18 18 18 18 19 21 21 21 22
18 17 16 16 15 14 14 14 14 13 12 11 11 11 12 11 10 10 11 12 13 14 14 15 16 16 17 17 17 17 17 17 18 19 20 20 20 20 21 21 22 23 23

GEFSMW_500_meanwind_216.txt.gz
Wind_Speed
19 19 20 20 21 21 22 24 25 26 27 27 28 28 28 28 27 27 28 27 27 27 28 27 27 26 26 25 25 24 25 24 24 24 24 24 23 24 24 25 26 26 27
19 20 21 20 21 23 24 25 26 27 27 28 29 29 28 27 26 27 27 27 27 26 26 26 26 25 25 24 24 23 23 23 24 24 24 24 24 24 25 25 25 26 27
21 21 21 22 23 23 25 27 27 27 27 28 29 29 29 28 27 27 27 27 27 27 26 25 25 24 24 24 22 22 22 23 24 24 25 25 25 25 25 26 25 25 26
22 22 23 23 24 25 26 27 27 28 28 29 29 29 28 28 27 27 26 26 26 25 24 23 23 23 23 23 22 22 23 24 24 25 25 26 25 25 25 25 25 25 26
23 23 23 24 24 25 26 26 27 28 28 28 29 28 27 27 26 25 25 25 24 24 23 22 21 21 21 22 21 23 23 24 25 26 26 26 25 25 25 25 25 26 25
23 24 24 24 25 26 27 27 27 28 28 27 27 26 26 26 25 24 24 24 23 22 22 21 20 20 21 21 22 22 23 23 25 26 26 26 25 25 25 25 25 25 24
23 23 24 25 25 26 27 27 27 28 27 27 26 26 26 25 24 23 23 23 22 21 21 20 20 19 19 19 20 22 22 22 23 24 25 25 25 24 25 25 25 25 25
22 23 24 24 25 26 26 27 27 26 26 25 25 25 23 23 22 22 22 22 21 21 20 19 19 18 17 17 18 19 20 20 21 22 23 24 23 23 24 24 24 24 24
23 24 25 25 24 25 25 26 26 26 25 25 25 24 23 22 21 22 22 20 20 19 18 18 18 17 17 17 18 18 19 18 18 19 20 21 21 22 21 22 22 23 23
23 24 24 23 24 24 24 24 24 25 24 24 23 23 23 21 21 21 20 20 19 18 19 18 17 17 17 16 16 16 16 16 16 17 17 18 19 20 20 20 20 21 22
23 23 22 22 23 23 23 23 23 23 22 22 22 22 22 22 21 21 20 19 18 18 18 17 17 17 16 14 14 13 13 13 13 14 16 17 17 18 18 18 19 21 22
21 20 20 21 21 21 21 22 21 22 22 22 21 22 22 21 20 19 19 18 18 18 17 17 17 17 15 14 12 11 12 12 13 13 14 14 15 16 17 17 19 20 22
20 19 19 20 20 20 20 20 20 21 21 21 21 20 20 20 19 19 18 18 17 17 17 16 16 15 14 12 12 11 11 12 12 13 13 13 14 14 15 17 18 19 21
19 18 18 18 18 19 19 20 20 20 20 20 19 19 19 19 19 18 17 17 17 17 17 17 16 14 12 12 11 10 11 11 11 12 12 12 12 13 14 16 17 18 19
18 18 17 17 18 19 19 19 19 18 17 18 18 18 17 17 17 17 17 17 16 16 16 16 14 12 12 12 11 11 10 11 11 11 12 12 12 13 14 14 15 16 17
17 17 16 16 17 18 18 18 17 17 17 18 18 17 17 16 17 17 17 16 16 16 15 15 13 12 12 12 11 11 10 11 12 12 12 12 12 12 13 14 15 15 16
16 16 17 17 18 18 17 17 16 16 17 17 17 17 16 16 16 16 17 16 16 17 16 14 14 13 12 12 12 12 11 12 12 12 11 12 11 12 12 12 13 14 15
16 16 17 17 17 17 16 16 15 15 15 16 16 16 16 16 16 16 16 16 16 16 15 14 13 13 13 13 13 12 12 13 13 12 11 11 11 11 11 11 12 13 15
17 16 16 16 16 16 16 15 15 15 15 15 16 16 16 16 16 16 16 15 14 13 13 14 13 13 13 14 13 13 13 13 12 11 11 11 11 11 12 12 13 14 15
17 16 16 16 16 16 15 15 15 15 15 15 16 16 16 16 16 16 17 16 14 12 12 13 13 13 14 14 14 14 13 13 11 11 11 11 11 12 12 12 13 14 14
17 17 16 16 16 16 15 15 14 15 15 15 15 15 16 16 16 16 17 15 13 12 12 13 13 14 14 14 15 14 13 12 11 11 11 11 11 12 12 13 13 14 15
17 16 16 16 15 15 15 15 15 15 15 15 15 15 16 16 16 16 16 14 12 11 12 12 13 13 14 14 15 15 13 13 12 11 11 12 12 12 13 14 15 16 17
17 16 16 15 15 15 15 15 15 15 15 15 15 15 16 16 16 16 15 13 12 11 12 13 13 13 14 15 15 14 13 13 13 12 13 13 13 14 14 15 16 17 18
18 17 16 15 15 15 15 15 15 15 15 15 15 14 14 15 15 14 13 12 11 11 12 12 13 13 14 15 15 14 13 13 13 13 14 14 15 14 15 16 17 18 18
19 18 16 15 15 14 15 14 14 14 14 14 14 14 14 15 14 13 11 11 11 11 12 12 13 13 14 15 15 14 14 15 15 14 14 15 15 15 16 16 17 18 19
19 18 16 16 15 15 15 14 14 14 14 14 14 13 13 13 12 11 11 11 10 11 11 12 12 13 13 14 14 14 14 15 15 15 15 15 15 15 16 17 18 19 20

GEFSMW_500_meanwind_222.txt.gz
Wind_Speed
18 19 19 19 20 20 20 21 21 22 23 25 26 26 27 28 28 27 27 28 27 26 27 27 27 27 27 28 28 29 29 28 29 29 29 28 28 28 28 28 27 27 28
19 19 19 19 19 20 21 21 22 23 24 25 26 27 28 28 28 27 27 27 26 26 26 26 26 27 27 28 28 27 28 27 28 28 28 28 29 29 28 28 27 28 29
20 20 20 20 20 20 21 21 22 23 25 26 26 27 27 28 27 26 26 26 26 26 26 25 25 26 26 26 26 26 26 26 26 27 27 28 28 28 29 29 28 27 28
21 21 20 21 21 21 22 22 22 23 25 26 26 27 27 27 27 26 26 26 26 26 26 25 25 25 25 26 26 26 26 25 25 26 27 28 28 28 28 28 28 27 27
20 21 22 21 22 22 22 23 23 24 24 25 27 27 27 27 27 25 25 25 25 26 25 25 24 24 25 25 25 25 25 25 25 26 27 27 27 27 26 26 27 27 26
21 22 22 22 22 22 23 23 23 24 24 26 27 27 27 27 27 26 25 25 24 24 24 24 24 23 23 23 23 24 25 25 25 25 26 26 26 26 25 24 24 25 26
21 21 22 22 23 23 23 23 23 24 25 26 26 26 27 27 27 26 25 24 24 23 23 23 23 22 22 21 21 22 22 23 23 23 24 24 24 25 25 24 23 23 24
21 21 22 22 21 22 23 23 23 23 25 25 26 26 26 27 26 24 23 23 22 22 22 22 21 20 20 20 19 21 21 20 20 20 21 21 22 23 23 23 23 23 23
20 20 21 20 20 21 22 22 22 22 24 25 26 26 26 25 24 23 22 22 20 20 21 21 20 19 19 18 19 19 18 18 17 17 18 19 19 20 20 21 22 23 23
20 19 19 19 20 20 20 20 21 21 23 25 25 25 24 22 22 22 21 20 18 19 20 20 20 19 18 17 17 16 16 15 14 15 16 16 17 17 18 19 20 21 22
19 19 18 18 19 19 19 20 20 21 22 23 23 23 22 21 21 20 19 18 18 18 19 19 19 17 17 16 16 15 14 13 13 12 12 13 14 15 16 18 19 20 21
17 16 17 18 19 19 18 18 19 20 21 20 21 21 20 20 20 19 18 17 17 18 18 18 18 17 16 16 15 14 13 11 10 9 10 10 11 12 14 16 17 18 18
16 15 16 17 18 17 17 17 18 18 18 18 19 19 19 19 18 18 18 17 17 17 17 18 18 17 16 15 15 14 11 10 10 10 10 10 11 12 13 14 15 16 17
15 14 15 15 16 16 16 17 17 17 17 17 18 18 19 18 18 18 17 17 16 17 17 18 17 16 16 15 14 12 11 10 10 10 10 10 11 11 12 13 13 15 15
14 13 14 15 15 16 16 16 16 16 16 16 17 18 19 18 18 17 17 17 17 17 17 17 16 15 15 15 13 12 11 11 11 11 11 11 11 12 11 11 12 13 14
13 13 14 14 15 16 16 16 16 16 16 16 17 18 18 17 17 17 18 18 18 18 17 17 16 15 15 15 13 12 12 12 12 12 12 11 11 11 11 11 11 12 13
14 14 14 15 16 16 17 16 16 16 16 17 17 17 17 17 17 18 19 18 18 18 17 17 16 15 15 15 14 14 13 12 12 12 12 12 11 10 11 11 12 12 13
14 15 16 15 15 15 15 15 15 16 16 17 17 17 18 18 19 19 19 19 18 17 17 17 16 16 16 15 15 14 13 13 13 13 13 12 11 10 10 11 12 13 13
14 15 15 15 15 15 14 15 15 15 15 16 17 17 17 17 18 18 18 18 18 17 17 16 16 17 16 16 15 15 14 14 13 13 12 11 10 10 11 11 11 12 14
15 14 14 15 15 15 14 14 14 15 15 15 16 16 16 17 17 18 19 19 18 17 17 16 17 17 17 17 17 17 16 15 13 12 12 11 11 11 11 12 12 13 14
15 15 15 16 15 14 14 14 14 14 14 14 15 15 16 16 17 18 18 18 18 17 17 17 17 18 18 18 17 18 17 14 13 12 11 11 11 11 12 12 13 13 14
16 17 17 16 16 14 14 14 14 13 14 14 14 15 16 17 17 17 17 17 16 17 17 17 18 18 18 18 18 17 16 15 13 12 10 10 11 12 13 13 14 14 14
17 18 18 16 16 15 14 14 14 13 13 14 15 16 16 17 16 16 16 15 16 16 17 18 18 18 18 18 18 17 16 16 14 12 11 10 11 12 13 14 14 14 14
19 19 18 17 17 16 15 15 14 14 14 14 15 15 16 16 16 16 15 15 15 16 17 17 18 18 18 18 18 17 16 16 15 13 12 11 11 13 13 14 14 14 14
20 20 19 18 17 16 15 15 15 14 13 13 14 14 15 15 16 15 15 15 15 16 17 17 18 18 17 17 18 17 17 16 15 14 13 11 11 12 13 14 14 14 15
21 20 19 18 17 16 15 15 15 14 13 13 13 14 14 14 15 14 14 14 15 16 16 17 17 17 17 18 18 17 17 15 14 14 13 13 12 13 14 14 14 15 16

GEFSMW_500_meanwind_228.txt.gz
Wind_Speed
18 19 19 19 20 20 21 22 22 21 22 23 24 25 25 25 25 26 26 26 25 24 24 25 24 24 24 24 25 25 26 27 28 29 29 29 30 30 30 30 30 30 29
19 19 19 20 21 22 22 23 22 22 22 23 23 24 24 25 25 26 26 26 25 24 25 25 24 24 24 25 25 25 27 27 28 28 28 28 29 29 30 30 30 29 29
19 19 20 21 22 23 23 23 22 22 22 23 23 24 25 25 26 26 26 26 25 24 23 23 24 24 24 25 25 26 26 26 26 26 26 27 27 28 28 28 28 28 27
20 20 21 21 22 23 23 22 22 21 22 22 23 24 24 25 25 25 25 24 23 23 22 22 22 22 23 24 24 24 25 25 25 25 24 24 24 24 25 25 25 26 26
20 20 21 21 21 21 21 21 21 22 22 23 23 24 24 24 24 24 24 23 22 21 21 21 20 21 22 23 23 23 24 24 24 23 23 22 22 22 23 23 24 25 25
20 20 20 20 20 20 20 20 20 21 22 22 22 22 22 22 22 22 22 22 21 21 20 19 19 20 21 22 22 22 21 21 21 21 21 22 21 21 22 22 23 24 25
20 19 19 19 19 20 20 19 19 20 20 20 21 21 21 21 21 22 21 20 20 20 20 19 19 20 20 21 21 20 19 18 19 19 19 19 20 20 21 21 22 23 24
19 19 18 19 18 18 18 18 18 19 19 19 19 20 20 20 20 20 19 19 20 20 18 18 19 20 20 20 18 17 17 17 17 18 18 18 18 19 19 20 21 23 23
18 17 17 18 18 18 17 17 17 18 18 18 18 19 18 18 19 19 19 19 18 17 17 18 19 19 18 17 16 15 15 16 15 15 16 16 17 18 18 18 19 20 22
17 17 17 18 18 17 17 17 18 18 17 18 17 17 18 18 18 18 18 17 16 16 16 17 18 18 17 16 16 15 15 13 13 13 13 15 16 16 17 17 17 17 19
17 16 16 16 17 17 16 16 17 16 16 16 16 16 17 17 16 16 16 15 15 15 16 17 17 18 17 16 15 15 14 14 13 12 12 12 13 14 15 15 16 16 17
15 15 15 15 15 16 16 16 16 16 16 16 15 16 16 16 15 15 14 14 14 15 16 16 17 17 17 16 16 16 15 14 13 12 11 11 11 12 13 14 15 16 17
14 14 14 13 14 14 15 15 15 16 15 15 15 16 15 14 14 15 14 14 15 16 16 17 17 16 16 16 15 15 14 13 12 12 11 11 11 11 12 13 14 15 16
14 14 13 13 13 14 14 14 14 15 14 14 15 15 14 14 14 14 14 15 16 17 17 17 16 15 15 15 15 14 13 12 11 11 11 11 11 12 12 11 12 13 14
13 13 13 13 13 14 14 14 13 13 13 13 14 14 14 14 14 15 15 16 16 17 16 15 14 15 15 15 15 14 13 11 11 11 11 11 10 11 10 10 10 11 12
13 13 13 12 13 14 14 14 13 13 13 13 13 14 15 14 14 14 15 16 16 16 15 15 15 15 15 16 16 14 13 12 11 11 11 11 10 10 10 10 10 10 10
13 12 12 12 13 14 14 13 13 13 13 13 13 14 14 14 14 15 15 15 15 15 15 16 16 16 16 17 17 16 14 12 11 11 11 11 11 11 10 10 9 9 10
13 12 12 12 13 14 13 13 13 13 13 13 13 13 13 13 14 14 14 14 14 14 15 16 17 17 17 17 17 16 14 12 11 10 10 10 9 9 9 9 9 9 9
13 13 13 14 14 14 13 13 14 13 13 12 12 12 12 12 13 14 14 14 14 14 15 16 17 18 18 18 18 16 14 12 11 10 10 9 9 8 8 9 9 9 8
14 14 14 14 14 14 14 14 13 13 13 12 12 12 11 11 12 13 14 13 14 14 15 16 17 18 18 18 17 16 14 13 12 10 10 10 9 9 8 8 8 8 7
14 14 14 14 14 14 14 13 13 13 12 12 12 12 11 11 12 13 13 13 14 15 16 16 18 18 18 18 18 16 14 13 12 11 10 9 10 9 9 8 8 9 9
15 16 16 15 15 14 14 14 13 12 12 11 11 11 10 11 12 12 12 12 13 14 15 16 17 17 17 18 18 17 15 14 12 11 11 10 10 9 8 8 9 9 9
17 17 17 16 16 15 14 13 12 12 11 11 11 11 10 11 11 11 11 12 13 14 15 15 16 17 17 18 18 17 16 14 13 12 12 11 11 10 9 8 8 8 9
18 17 17 17 16 15 14 13 13 13 13 12 12 12 12 12 12 11 11 12 12 13 14 15 16 17 17 17 17 17 16 15 14 13 13 12 11 9 9 8 8 9 9
19 19 18 18 17 16 15 15 14 13 13 13 13 13 13 13 13 12 12 12 14 14 14 15 16 16 16 17 16 16 16 15 14 13 13 12 11 10 9 9 9 9 9
20 20 19 18 17 17 16 15 14 14 13 13 13 13 14 13 13 13 13 14 14 14 14 15 16 16 16 16 16 16 15 14 14 13 12 11 10 10 10 10 10 9 9

GEFSMW_500_meanwind_234.txt.gz
Wind_Speed
21 21 21 21 20 21 21 21 21 21 22 23 23 23 24 25 25 24 24 24 25 25 25 25 25 25 25 25 25 26 27 27 28 28 28 29 30 29 29 28 28 27 27
21 21 21 21 20 21 20 20 21 22 22 23 23 24 25 24 24 23 23 24 25 25 25 26 25 25 24 24 25 25 26 26 26 27 28 28 28 28 27 26 26 26 25
21 21 21 21 21 21 21 21 21 22 23 23 23 23 24 24 24 23 23 24 25 25 25 24 24 24 24 24 24 25 25 25 25 26 26 26 25 24 24 25 25 26 24
21 21 21 21 21 22 22 21 22 23 23 23 23 23 23 23 23 23 23 24 24 24 24 23 23 23 24 24 24 25 25 25 24 24 24 24 23 23 23 23 24 24 24
21 21 20 20 21 21 22 22 22 22 22 22 22 22 22 22 22 22 22 23 24 24 24 23 22 22 22 23 23 23 23 23 23 23 23 23 22 22 23 22 22 22 23
20 21 20 20 20 20 21 21 20 21 21 21 22 22 22 22 22 22 22 23 23 23 22 21 21 21 21 22 22 22 22 22 22 22 22 22 22 21 22 22 21 21 22
20 21 21 21 20 20 20 19 19 20 21 21 20 22 22 22 21 21 21 21 21 21 21 20 20 20 21 21 20 20 20 21 21 21 21 22 21 21 20 20 20 21 21
20 20 20 19 19 19 19 19 19 20 20 20 20 21 20 20 21 21 20 20 20 20 20 20 20 20 20 20 19 19 19 20 20 20 20 20 20 19 18 18 19 20 21
20 20 20 18 18 18 18 19 19 20 20 20 19 19 19 19 20 19 19 19 19 19 19 20 20 20 19 19 18 19 19 19 20 20 19 19 18 17 17 18 19 20 20
20 19 18 18 18 18 18 19 19 20 19 18 18 18 18 19 19 18 18 19 18 19 19 19 18 18 18 18 18 18 19 19 19 18 18 17 17 17 17 17 18 19 20
19 19 18 18 18 18 18 18 18 18 17 16 17 17 17 17 17 17 18 18 18 18 18 18 17 17 17 17 17 17 18 18 17 17 16 14 14 15 15 16 17 18 19
20 19 18 18 18 18 18 17 16 16 16 16 16 16 17 17 16 17 18 18 17 17 17 18 18 18 17 17 17 17 17 16 15 14 13 13 13 14 14 15 15 15 16
20 19 19 18 18 18 17 17 16 16 16 16 16 16 16 16 16 16 17 17 17 17 17 17 18 18 18 17 16 16 15 15 14 14 13 13 13 13 13 13 14 14 14
20 19 18 18 18 17 17 15 15 15 15 15 15 15 15 15 15 16 16 17 17 17 17 18 18 18 17 17 17 17 16 15 14 14 13 13 14 14 14 13 13 12 12
19 19 18 17 17 17 17 16 15 15 15 15 15 15 15 15 15 15 16 17 17 17 17 17 17 18 17 17 18 18 17 16 15 15 14 14 14 14 14 13 12 11 10
20 19 18 17 17 17 16 16 15 15 15 15 15 15 14 14 15 15 16 16 16 16 16 17 17 18 18 18 18 17 17 16 16 16 15 14 13 13 13 12 11 11 10
19 18 17 16 17 16 16 16 15 14 14 14 14 14 14 14 14 15 15 15 16 16 16 17 18 18 18 18 18 18 18 17 16 16 15 14 13 12 12 11 11 10 10
19 18 17 16 16 16 15 15 14 13 13 13 14 13 13 13 14 14 15 16 16 17 17 17 17 18 18 18 19 19 18 17 16 16 15 14 13 11 11 10 10 9 9
19 19 17 16 16 15 15 14 13 13 13 13 13 13 13 13 14 14 15 15 16 16 16 17 17 18 19 18 19 20 19 18 17 17 16 14 12 11 11 10 9 9 9
19 18 18 17 16 15 14 14 13 13 13 12 12 13 13 13 14 15 15 16 16 16 16 17 17 18 19 19 19 20 19 19 18 17 15 13 12 11 11 11 10 9 9
20 19 19 19 18 17 15 14 14 13 13 13 13 14 13 13 14 15 15 15 15 16 16 17 17 18 18 19 19 19 19 20 18 16 14 13 12 11 11 10 9 9 9
21 20 20 19 18 18 17 16 15 14 14 14 14 14 15 14 15 15 15 15 15 16 16 17 17 17 18 19 19 20 20 20 18 15 14 13 12 12 11 10 9 9 9
22 21 20 19 19 19 18 17 16 16 16 16 15 16 16 15 15 15 15 15 16 16 17 17 17 17 18 19 19 19 20 19 18 16 15 14 13 12 11 10 9 9 9
23 22 21 20 20 20 19 18 18 18 18 18 17 17 16 16 16 16 16 16 16 16 17 17 17 18 18 18 18 19 19 19 18 16 15 14 13 13 12 11 10 9 9
23 23 22 21 20 20 19 19 19 19 18 18 18 18 17 17 17 17 17 16 16 17 17 17 17 17 17 18 18 18 18 18 17 16 15 14 13 13 12 11 11 10 9
24 23 22 21 21 20 20 20 19 19 19 19 20 19 19 18 18 18 17 16 16 17 17 17 18 17 17 18 18 17 17 17 16 16 15 14 14 14 13 11 11 10 10

GEFSMW_500_meanwind_240.txt.gz
Wind_Speed
17 18 18 18 17 15 15 16 16 17 18 19 19 18 19 20 20 20 20 20 21 21 22 22 22 22 22 23 23 23 23 24 24 24 24 24 25 25 27 27 26 26 26
17 17 18 19 18 17 16 17 17 18 18 19 18 18 18 19 19 19 20 21 21 22 21 22 21 21 22 22 22 22 22 22 23 23 24 23 24 24 25 26 26 26 25
16 16 17 19 19 18 17 17 17 18 18 18 18 18 18 18 19 19 20 21 21 22 21 20 20 21 21 20 20 21 21 22 22 23 23 22 23 23 23 23 24 25 25
17 16 17 18 18 18 17 17 17 18 18 18 18 18 18 18 19 19 20 20 21 21 21 20 20 20 20 19 19 20 20 21 22 22 22 22 22 22 21 22 23 23 24
17 17 17 17 17 16 16 17 18 18 19 19 19 18 17 18 18 18 18 19 20 20 20 20 20 20 20 19 19 19 20 20 21 21 21 21 21 21 20 20 21 22 24
16 17 17 16 17 17 16 17 17 18 18 19 18 17 17 17 17 18 19 19 20 20 20 19 19 18 19 19 18 18 19 19 19 20 20 20 20 20 20 19 20 21 23
16 16 17 17 17 17 17 17 17 17 18 17 17 17 17 17 18 18 19 19 20 19 19 19 18 18 18 18 18 18 17 17 18 19 19 19 19 19 19 19 20 20 21
16 16 16 17 18 17 16 16 16 17 17 17 17 16 16 17 17 18 18 19 19 19 19 18 18 18 18 17 17 16 16 17 18 18 18 18 18 19 19 19 19 18 19
16 15 16 17 17 16 17 16 16 16 16 16 16 16 16 16 17 18 18 19 19 19 18 18 17 17 17 17 16 16 16 16 17 17 18 18 17 17 17 17 17 17 18
14 15 16 17 17 17 17 16 15 16 16 16 15 15 15 16 17 17 18 18 18 18 17 17 17 16 16 16 16 16 15 15 16 17 17 17 17 16 16 16 16 17 18
14 15 16 16 16 16 16 15 15 16 16 16 15 15 15 16 16 17 17 17 17 17 16 15 15 15 15 15 16 16 15 15 15 17 16 16 16 15 15 15 16 17 18
15 16 16 16 16 16 15 16 16 15 15 15 14 15 15 15 15 16 16 17 17 17 16 15 15 15 15 15 15 14 14 14 15 15 15 15 13 13 13 14 15 16 16
15 15 15 15 16 16 16 16 15 14 14 14 14 14 14 14 15 15 16 16 16 16 15 15 15 15 15 14 13 13 13 13 13 14 14 13 13 13 13 14 14 14 14
15 15 15 15 16 16 16 15 14 14 13 13 12 13 13 14 14 14 15 15 15 15 15 15 15 15 14 14 13 13 14 14 14 14 14 13 13 13 13 13 13 12 11
16 16 16 15 14 14 14 14 13 13 13 12 12 12 12 13 14 14 15 15 15 15 15 15 15 15 14 13 13 14 15 15 14 14 13 13 13 13 13 12 12 11 10
17 16 15 16 15 14 14 13 13 12 12 12 11 12 13 13 14 14 15 15 15 15 16 15 15 16 15 14 14 14 14 14 14 14 13 13 13 13 13 12 11 10 9
17 17 16 16 15 14 13 13 13 12 12 12 11 11 12 13 14 15 15 15 15 15 15 15 16 16 16 15 15 14 14 15 15 14 14 13 13 13 13 12 11 10 8
17 17 17 16 16 15 15 14 13 12 12 12 12 12 13 14 14 15 15 15 15 15 16 16 16 16 16 16 15 15 15 15 15 14 14 13 12 12 12 12 11 10 9
19 17 17 17 16 16 14 13 13 13 13 13 13 13 13 14 14 15 16 16 16 16 16 16 16 16 16 16 16 15 15 15 15 14 14 13 12 12 12 11 11 10 9
19 19 18 18 17 16 15 14 14 14 14 14 14 14 14 14 14 15 16 16 16 16 16 16 16 16 16 17 16 16 15 15 15 15 14 13 12 12 12 11 11 10 9
20 20 19 18 17 16 16 15 15 15 15 16 15 15 15 15 15 16 16 16 16 16 16 16 17 17 17 17 16 16 15 14 14 14 14 13 12 12 11 10 9 8 8
21 20 20 19 18 17 17 17 17 17 17 17 17 17 17 17 17 17 16 16 15 15 16 16 17 17 17 16 16 15 15 14 14 13 13 13 13 12 11 10 10 9 8
22 21 21 20 19 18 18 18 18 18 18 19 18 18 18 18 17 16 16 15 15 14 15 15 16 15 16 16 16 15 14 14 14 13 13 13 13 12 11 11 10 10 9
22 22 21 21 20 20 20 19 18 18 19 19 18 18 18 18 17 17 16 15 14 14 14 14 15 15 15 15 15 15 14 13 13 13 13 13 12 12 11 11 10 9 8
24 23 22 22 22 22 21 20 19 19 20 19 19 18 18 18 17 17 17 16 15 14 14 15 15 15 15 15 15 14 14 14 14 13 13 13 12 12 11 10 9 8 8
26 24 23 24 24 23 22 21 20 20 20 20 20 19 18 18 18 17 18 17 16 15 15 15 15 15 15 15 14 14 14 14 13 13 13 12 11 11 11 10 10 9 8

GEFSMW_500_meanwind_246.txt.gz
Wind_Speed
15 15 15 15 15 15 15 16 15 14 15 16 17 17 17 17 17 16 16 17 18 18 18 19 20 20 20 20 21 21 21 21 21 22 22 23 24 24 24 25 26 26 26
15 15 15 15 15 15 16 15 15 15 15 16 16 16 16 16 16 16 16 17 18 18 18 19 20 20 20 20 20 21 21 21 21 21 21 21 22 24 24 25 26 26 26
15 15 15 15 15 15 15 15 14 15 15 16 16 16 16 16 16 17 17 17 18 18 19 19 20 20 20 21 20 20 20 19 20 20 21 21 22 23 24 24 25 25 25
15 15 15 15 16 16 15 15 15 16 15 16 16 16 16 16 16 17 17 18 18 19 19 19 20 21 20 20 19 19 19 20 20 20 20 21 22 23 22 22 23 24 24
15 15 15 16 16 16 16 16 16 16 16 16 16 15 16 17 17 17 18 19 20 20 20 20 20 20 19 19 18 18 19 20 21 21 21 21 21 21 21 21 22 23 23
15 15 16 17 18 16 16 16 16 16 16 16 15 16 17 17 18 18 19 20 20 20 20 19 19 19 18 18 18 18 19 20 20 20 21 21 20 20 20 20 21 22 23
15 16 17 18 18 16 16 16 15 15 15 15 16 17 17 17 17 18 19 20 20 20 19 19 19 19 19 18 18 18 18 19 20 20 20 20 20 20 20 20 21 21 22
15 17 17 17 17 16 16 16 15 15 16 16 16 16 16 16 16 18 19 20 20 19 18 18 18 19 18 18 18 18 18 18 19 19 19 20 20 20 20 20 20 21 21
15 16 16 17 17 16 17 15 14 15 15 15 15 16 16 16 17 18 18 19 19 19 18 18 19 19 18 18 18 18 18 18 18 18 18 18 19 19 20 20 20 20 20
15 16 16 16 16 17 16 15 14 15 14 14 15 15 16 16 17 17 17 18 18 18 18 18 18 18 18 18 18 18 18 18 18 18 18 18 18 19 19 19 19 19 19
14 15 15 16 16 16 16 15 15 15 14 15 15 16 15 15 14 16 16 17 17 17 17 17 17 17 17 17 17 17 17 17 16 17 18 18 18 18 18 18 18 18 19
15 15 15 15 15 15 15 15 15 15 15 15 15 15 14 14 14 15 16 16 16 17 17 17 17 17 17 16 17 17 16 15 15 16 17 17 16 16 17 17 17 17 18
16 15 15 15 15 14 14 14 15 14 14 14 14 14 13 14 14 15 16 16 16 17 17 17 17 17 16 16 16 16 15 16 16 16 16 15 15 16 15 15 16 16 17
16 16 15 15 15 15 15 14 14 14 14 14 14 14 13 14 14 14 15 16 16 16 16 17 17 17 16 16 16 16 15 15 15 15 15 15 15 14 14 14 15 16 16
17 16 16 16 16 15 15 14 14 14 14 13 13 14 14 14 14 14 15 15 15 16 16 16 17 17 17 17 16 15 14 14 15 15 14 14 14 14 14 14 14 14 14
17 16 16 16 16 16 15 15 14 13 13 13 13 13 13 14 15 14 15 15 15 16 16 16 16 16 17 16 15 14 14 14 14 14 13 14 13 14 13 13 13 13 13
16 16 16 16 16 15 15 14 13 12 12 13 13 13 13 14 15 15 15 15 15 15 16 17 16 16 16 16 15 14 15 15 14 13 13 13 13 13 12 12 13 12 12
17 17 17 17 16 16 15 14 13 13 14 14 13 13 14 14 15 15 15 15 15 15 16 17 17 16 16 15 15 15 15 15 14 13 13 14 13 12 12 12 12 12 11
18 18 17 17 16 16 15 15 15 15 15 15 15 15 14 15 15 14 15 16 16 16 16 16 17 17 17 16 15 15 15 15 15 14 14 13 12 12 12 12 11 11 10
20 19 18 18 18 17 17 17 16 16 16 16 16 16 16 15 15 15 15 15 16 16 16 16 17 17 16 16 15 15 15 15 15 14 14 13 12 12 12 11 10 10 9
22 20 19 19 20 19 19 19 19 18 17 16 17 17 16 16 15 15 15 15 15 15 16 16 16 16 16 16 16 16 16 15 15 14 14 13 12 11 11 11 10 9 8
24 23 22 21 21 21 21 20 21 19 18 17 17 16 17 17 16 16 16 15 15 15 15 15 15 15 15 16 16 15 15 15 14 13 13 12 11 10 10 10 9 8 8
25 24 23 23 23 23 22 22 22 22 19 17 17 16 17 16 16 17 16 15 15 15 15 15 15 15 15 15 15 15 14 14 13 12 11 10 10 10 10 10 10 9 9
25 25 24 24 24 24 24 24 23 22 21 19 18 18 18 17 17 17 16 16 15 15 15 15 15 15 15 15 15 15 15 14 13 12 11 11 11 10 10 10 9 9 9
26 25 25 25 25 25 25 25 24 23 22 20 19 19 19 17 17 17 16 16 15 16 16 15 15 15 15 15 15 14 14 13 12 12 11 11 10 10 10 10 9 9 9
24 24 24 24 24 24 25 25 25 24 22 21 20 19 19 18 17 17 17 17 16 16 16 16 16 15 14 14 14 14 13 13 12 11 11 11 10 10 10 10 10 9 9